COSMOS 2219

Satellite information

Favourite Embed

Satellite Type and Status

PAYLOADIN ORBIT

Key statistics

Satellite COSMOS 2219 at a glance.

Uptime

11859

Days in orbit

Revolutions

≈ 14.1

Per day

Orbit

LEO

Low Earth Orbit

Inclination

71.1

Latest

Satellite identification and parameters

Extended collection of information and parameters for COSMOS 2219.

Object identification

Identified? True

Debris? False

Object name: COSMOS 2219

International designator: 1992-076A

Object number (NORAD): 22219

Object ID (CCSDS): 22219

Country: COMMONWEALTH OF INDEPENDENT STATES (CIS)

Current information (Y/N): Y

RCS size: LARGE

Orbital parameters

Period: 101.837 minutes

Inclination: 71.0602 deg

SMA: 7223.766 km

Apoapsis: 859.799 km

Periapsis: 831.463 km

RAAN: 299.2908 deg

Eccentricy: 0.0019613

Argument of periapsis: 305.3632 deg

Mean anomaly: 54.5657 deg

Mean motion: 14.14025477 rev/day

Mean motion (dot): 0.00000333 rev/day2

B* drag term: 0.00019968 1/REarth

Two-line elements (TLE)

Creation date: May 7, 2025, 3:14 a.m.

Reference frame: TEME

Reference center: EARTH

Epoch: May 6, 2025, 10:24 p.m. UTC

TLE line 0: 0 COSMOS 2219

TLE line 1: 1 22219U 92076A 25126.93394391 .00000333 00000-0 19968-3 0 9992

TLE line 2: 2 22219 71.0602 299.2908 0019613 305.3632 54.5657 14.14025477675011

Live tracking on map

Real-time ground track for satellite COSMOS 2219.

In-orbit conjunctions

A list of the most updated potential collisions computed for object COSMOS 2219.

Target Orbit TCA Probability of collision Miss distance Type
DMSP 5D-2 F11 DEB SSO 2025-04-12 04:09:25 0.000627183 297.0 (m) DEBRIS
DMSP 5D-2 F13 DEB SSO 2024-12-15 05:21:13 0.0002727817 364.0 (m) DEBRIS
FENGYUN 1C DEB SSO 2024-12-05 10:16:13 0.0002460772 850.0 (m) DEBRIS
CZ-6A DEB SSO 2024-09-23 10:53:45 0.0002993159 528.0 (m) DEBRIS
CZ-2C DEB SSO 2024-08-30 22:22:43 0.0001164132 170.0 (m) DEBRIS

Associated space launch

Second generation ELING satellite

COSMOS 2219 was lifted into orbit during the mission ‘Zenit-2 | Tselina-2 11’, on board a Zenit-2 space rocket.

The launch took place on Nov. 17, 1992, 7:47 a.m. from 45/1.

For more information about the launch, click the button.

Launch to space Zenit-2 | Tselina-2 11
Zenit-2 | Tselina-2 11

Agency: N/A

Status: Launch Successful

Launch date: Nov. 17, 1992, 7:47 a.m. UTC

Rocket: Zenit-2

Launch pad: 45/1

Location: Baikonur Cosmodrome, Republic of Kazakhstan

...

Latest news about this satellite

There are no fresh news available about this satellite. Check back as we update our databases every day.


Newsletter sign-up

Weekly statistics, charts and insights to help you stay on top of the space industry.